Regional Weather Roundup
Issued by NWS

Home | Current Version | Previous Version | Text Only | Print | Product List | Glossary Off
Versions: 1 2 3 4 5 6 7 8 9 10 11 12 13 14 15 16 17 18 19 20 21 22 23 24 25 26 27 28 29 30 31 32 33 34 35 36 37 38 39 40 41 42 43 44 45 46 47 48 49 50

000
ASUS43 KFSD 202002
RWRSD

WEATHER ROUNDUP FOR SOUTH DAKOTA
NATIONAL WEATHER SERVICE SIOUX FALLS SD
200 PM CST MON FEB 20 2017

NOTE: "FAIR" INDICATES FEW OR NO CLOUDS BELOW 12,000 FEET WITH NO
SIGNIFICANT WEATHER AND/OR OBSTRUCTIONS TO VISIBILITY.


SDZ001>005-009-010-012>017-202100-
NORTHWEST AND NORTH CENTRAL SOUTH DAKOTA

CITY           SKY/WX    TMP DP  RH WIND       PRES   REMARKS
BUFFALO          N/A     57  21  24 W18       29.70F
FAITH            N/A     57  28  33 NW22G33   29.76S
MOBRIDGE       SUNNY     51  39  63 NW10      29.71S
$$

SDZ012>016-024>037-041>051-057-063-072>074-202100-
SOUTHWEST AND SOUTH CENTRAL SOUTH DAKOTA

CITY           SKY/WX    TMP DP  RH WIND       PRES   REMARKS
RAPID CTY ARPT SUNNY     61  17  18 VRB3      29.81F
PIERRE         SUNNY     59  40  49 NW17      29.75S
CUSTER         SUNNY     49  17  28 W15G22    29.87S
ELLSWORTH AFB  SUNNY     60  17  18 NW12G17   29.80F
PHILIP         SUNNY     61  23  23 NW24G33   29.79S
PINE RIDGE     SUNNY     58  28  32 W16       29.86F
SPEARFISH      FAIR      55  16  21 W15G22    29.81F
WINNER         FAIR      61  39  44 NW21G28   29.78F
$$

SDZ004>011-016>023-039-040-202100-
NORTHEAST SOUTH DAKOTA

CITY           SKY/WX    TMP DP  RH WIND       PRES   REMARKS
ABERDEEN       CLOUDY    47  39  74 NW17      29.69R
WATERTOWN      CLOUDY    47  47 100 W14       29.62R FOG
BROOKINGS      CLOUDY    49  46  90 W20       29.63R FOG
SISSETON         N/A     44  43  96 NW21      29.61R
$$

SDZ017-020-022-023-036>040-048>070-202100-
SOUTHEAST SOUTH DAKOTA

CITY           SKY/WX    TMP DP  RH WIND       PRES   REMARKS
SIOUX FALLS    CLOUDY    51  48  89 W12G20    29.67R
HURON          PTSUNNY   53  43  68 NW23G36   29.70R
CHAMBERLAIN    SUNNY     58  44  59 W17       29.77S
MITCHELL       CLOUDY    57  43  59 NW25G36   29.72R
YANKTON        CLOUDY    52  39  62 NW14      29.74R
$$

ABBREVIATIONS USED IN REMARKS
   TC - TEMPERATURE IN CELSIUS
  WCI - WIND CHILL INDEX
   HX - HEAT INDEX
  VSB - VISIBILITY





USA.gov is the U.S. government's official web portal to all federal, state and local government web resources and services.